Wetbulb
69.23 72.93 76.21 75.45 74.97 74.92 75.43 75.76 75.91 76.27 76.17 75.85 75.94 75.61 75.86 75.26 75.23 75.11 75.36 74.85 74.81 74.28 73.94 73.72 73.49 73.26 73.23 74.43 74.32 73.98 73.55 73.36 74.11 73.91 73.72 73.53 73.88 74.12 74.03 73.66 73.67 70.62 72.58
70.75 73.33 76.13 75.44 74.71 74.82 75.72 76.31 76.42 75.91 75.86 75.79 75.78 75.25 75.28 75.48 75.12 74.78 74.88 75.35 74.99 74.20 73.88 73.53 73.50 72.53 73.47 73.89 74.17 73.65 73.46 73.33 73.52 73.43 73.14 73.22 73.29 74.11 73.71 73.44 74.16 72.16 73.13
71.72 73.30 74.09 75.70 74.90 74.90 75.19 75.05 75.30 75.33 75.61 75.47 75.30 75.06 74.90 74.79 74.99 74.75 74.62 75.01 74.95 73.98 73.57 73.02 72.57 72.05 73.12 73.90 73.74 73.66 73.67 73.45 73.06 73.01 72.38 70.05 71.17 73.75 73.65 73.54 73.40 73.27 73.47
72.40 73.26 73.16 75.72 75.78 75.08 74.92 74.75 74.68 74.40 74.44 74.78 74.86 74.41 74.38 74.82 74.92 74.55 74.50 74.71 74.78 73.94 73.50 72.97 72.35 72.27 73.49 73.54 73.49 73.27 73.46 73.12 72.76 72.02 69.69 69.48 70.72 72.93 73.26 72.89 72.75 73.09 72.84
72.40 72.86 73.33 75.99 75.74 75.52 74.47 74.64 74.54 74.46 74.13 73.88 73.96 74.22 74.76 74.82 74.65 74.38 74.25 74.61 74.40 73.92 73.24 72.58 72.28 72.85 73.18 73.38 73.49 73.10 73.08 72.72 72.05 70.38 69.27 69.24 69.41 72.12 73.17 72.69 72.05 72.23 72.20
71.79 72.74 75.19 76.27 75.60 75.43 74.10 73.64 73.62 73.85 73.63 73.35 73.54 73.90 74.40 74.57 74.52 74.37 74.14 74.41 74.12 73.63 73.00 72.36 72.34 72.57 72.63 72.81 72.83 73.00 72.58 72.05 70.77 68.71 68.73 69.81 69.31 72.48 72.34 71.47 71.26 71.24 71.69
70.20 73.33 75.10 76.47 75.60 75.49 74.79 73.84 73.04 73.10 73.89 73.93 73.17 73.04 74.34 74.64 74.64 74.44 74.30 73.95 73.76 73.54 72.91 72.50 72.11 71.84 71.74 71.92 72.25 72.46 71.73 71.02 67.92 67.71 68.09 68.57 69.66 71.94 71.84 70.62 70.65 70.86 70.66
69.57 73.84 74.70 76.46 76.48 76.54 75.54 74.41 73.46 73.08 74.12 73.52 73.82 73.25 73.44 74.43 74.58 74.45 74.30 73.82 73.57 73.52 72.86 72.30 71.71 71.15 70.50 70.66 71.50 72.15 71.15 70.24 67.95 67.04 67.48 67.87 71.12 71.40 71.25 70.12 69.63 70.06 70.18
69.87 72.86 74.21 74.60 75.19 76.66 76.12 75.52 74.39 73.17 74.26 73.62 72.70 73.49 74.29 73.83 74.88 74.56 73.86 73.39 73.40 73.23 72.83 72.13 71.27 70.56 69.90 69.49 71.05 71.62 70.81 69.68 66.31 66.94 68.05 67.75 71.34 70.69 70.49 69.44 68.90 68.51 69.14
70.48 71.57 73.02 73.89 74.35 74.74 74.38 75.82 75.44 74.59 74.16 74.19 73.36 74.18 74.18 74.51 74.34 74.51 74.16 73.13 73.14 72.83 72.78 72.20 71.24 70.07 69.33 68.71 69.95 70.81 69.88 68.51 65.90 66.54 66.98 68.03 70.20 69.84 69.62 68.81 68.09 67.81 68.04
69.48 70.55 72.67 73.21 73.13 73.04 73.35 74.35 75.48 74.97 74.50 74.41 73.99 74.37 73.68 71.51 72.02 72.87 72.89 73.58 73.00 72.77 72.76 72.20 71.43 70.46 69.00 68.34 69.01 69.21 68.51 65.41 65.27 65.60 66.29 70.08 69.43 68.80 68.91 68.11 67.24 67.23 67.50
68.38 69.92 71.27 72.05 72.09 72.13 73.43 72.47 71.83 72.31 71.99 71.49 71.41 71.33 71.11 70.11 70.54 71.89 72.06 73.34 73.16 72.88 72.81 72.35 71.39 70.61 68.66 62.88 62.88 65.77 64.81 64.63 64.71 65.34 66.40 69.91 68.86 68.91 67.92 67.16 66.83 66.85 67.03
68.41 69.77 70.67 71.08 71.06 70.69 71.07 70.29 70.03 70.46 70.24 70.24 70.07 69.40 69.88 69.71 68.49 69.56 69.12 69.74 69.78 72.18 69.94 70.58 69.54 67.76 65.04 63.25 60.57 61.28 63.96 63.86 63.77 64.81 68.01 69.38 68.51 68.03 67.16 66.58 66.93 67.30 67.35
67.67 69.08 69.84 70.26 70.21 70.13 70.18 70.08 69.91 69.74 69.39 69.13 69.46 68.89 67.86 67.14 67.09 67.28 67.98 67.46 68.46 68.31 68.12 67.65 66.56 66.23 64.93 64.20 62.40 62.49 62.05 62.41 63.08 64.15 67.17 68.96 68.10 68.00 67.28 67.01 66.78 67.09 67.13
67.04 68.38 68.84 69.41 69.45 69.44 69.26 68.69 68.69 68.28 68.69 68.41 68.70 68.24 67.90 67.15 66.47 66.63 66.54 66.46 67.00 67.39 66.97 66.28 65.72 65.49 64.17 62.58 61.64 64.10 61.03 61.43 61.57 62.65 64.72 68.58 68.43 67.57 67.06 67.22 66.76 66.64 66.77
67.16 67.29 67.96 69.32 68.93 68.97 68.04 67.99 68.26 67.87 68.13 67.67 67.70 67.84 68.06 66.99 66.43 65.89 65.72 65.96 66.27 66.52 66.36 66.16 65.62 65.01 63.27 60.20 61.31 62.84 62.13 60.16 60.48 62.58 64.21 65.68 68.02 67.90 66.73 66.94 66.80 66.65 66.35
66.45 67.49 67.46 68.88 69.06 68.16 67.53 67.64 67.57 68.06 67.98 67.40 67.45 67.87 67.96 66.90 66.11 65.45 65.09 65.21 65.48 65.63 65.47 65.52 64.43 62.80 59.76 60.09 60.01 61.22 61.68 60.71 61.01 62.02 63.70 63.43 65.06 67.02 67.23 66.56 66.35 66.37 66.15
64.67 66.78 67.08 69.54 68.79 68.36 67.18 66.15 66.14 66.50 65.70 66.00 66.25 66.69 67.06 66.49 65.83 64.03 64.19 63.77 64.62 64.33 64.42 64.08 63.10 60.53 58.73 58.30 58.89 60.48 60.10 59.59 61.71 61.21 62.83 63.30 62.29 63.03 66.03 66.44 66.37 66.10 65.88
62.37 66.36 66.56 67.03 67.64 67.49 65.71 65.60 65.50 65.45 65.45 65.27 65.55 65.32 65.91 65.91 65.09 63.35 62.62 63.44 63.47 63.18 62.76 62.87 60.50 58.87 57.03 57.64 59.55 60.49 60.71 60.47 61.06 62.20 61.29 61.06 61.86 62.66 63.10 65.85 65.67 65.61 65.23
60.97 66.01 66.95 66.50 66.02 65.10 65.22 64.57 64.05 64.32 63.94 63.59 63.91 64.03 65.03 65.49 64.62 62.93 62.80 62.96 62.91 62.12 61.57 60.99 59.25 58.55 57.01 58.36 59.62 59.23 59.48 60.30 59.97 60.62 61.08 61.46 61.29 61.48 62.20 62.54 62.77 63.34 65.12
57.76 64.01 65.76 65.62 63.82 65.16 64.31 62.96 61.86 61.48 61.37 61.44 62.43 63.51 63.59 63.66 64.32 62.16 61.98 62.23 61.69 61.20 60.84 60.39 58.96 57.93 58.39 59.38 58.02 57.75 58.34 59.35 59.73 60.59 61.08 61.12 60.63 61.21 60.76 60.94 61.39 61.78 62.49
56.13 62.32 64.64 64.72 64.25 65.15 64.91 61.84 61.61 61.22 60.89 61.33 61.77 62.38 63.17 63.02 62.30 62.11 60.99 61.04 60.66 60.01 59.85 59.46 58.78 58.84 58.35 58.85 56.49 55.87 54.13 56.51 58.04 59.33 60.59 61.03 60.52 61.18 60.58 60.79 60.23 60.67 60.75
55.90 60.85 63.15 64.17 64.41 64.72 64.08 61.86 60.36 59.91 59.90 59.22 59.72 60.21 61.47 62.47 61.99 62.28 62.01 60.79 60.27 59.50 58.76 59.83 60.26 59.07 57.29 58.20 58.07 55.64 52.47 52.08 54.89 57.69 58.33 59.43 59.34 59.42 59.53 59.83 60.24 59.96 59.08
56.86 60.97 63.16 63.35 63.36 62.71 63.30 60.06 61.08 58.12 57.20 57.92 59.19 60.07 60.86 61.32 61.44 61.23 61.76 60.12 59.63 59.24 58.93 60.85 60.59 59.25 58.73 56.85 55.00 56.91 55.28 54.36 51.66 52.00 56.34 57.69 58.46 58.70 58.93 59.08 58.63 59.59 58.58
56.15 60.19 60.60 59.96 59.72 58.93 58.66 59.33 58.24 56.68 56.99 57.72 57.93 57.97 57.63 58.79 61.03 61.15 60.55 60.63 60.25 60.73 61.06 60.58 59.75 58.80 58.98 58.14 56.20 54.92 55.02 53.37 52.40 52.27 51.38 54.21 56.90 58.10 58.77 58.52 57.74 58.72 58.39
55.61 56.72 58.04 57.61 56.79 57.02 56.94 56.69 56.33 56.00 55.53 56.01 56.49 56.38 56.97 57.59 61.35 61.35 60.75 58.91 58.84 58.84 59.13 60.63 60.16 59.20 58.37 58.25 57.67 54.90 52.97 51.74 52.33 50.53 50.30 52.06 52.41 55.27 57.61 56.79 56.68 57.90 57.89
MSLP
1010.90 1010.83 1010.99 1011.26 1011.55 1011.85 1011.96 1012.07 1012.17 1012.24 1012.44 1012.55 1012.66 1012.72 1012.81 1013.02 1013.14 1013.28 1013.18 1013.20 1013.31 1013.24 1013.25 1013.22 1013.17 1013.06 1013.11 1013.19 1013.12 1012.96 1012.86 1012.75 1012.74 1012.67 1012.54 1012.33 1011.89 1011.58 1011.50 1011.28 1010.87 1010.56 1010.18
1010.46 1010.76 1011.14 1011.35 1011.58 1011.96 1011.98 1012.07 1012.18 1012.36 1012.43 1012.70 1012.77 1012.96 1012.98 1013.16 1013.24 1013.42 1013.42 1013.30 1013.45 1013.48 1013.50 1013.49 1013.38 1013.34 1013.42 1013.50 1013.39 1013.21 1013.11 1013.08 1013.00 1012.93 1012.83 1012.67 1012.35 1011.98 1011.96 1011.71 1011.33 1011.04 1010.56
1010.39 1010.73 1011.03 1011.35 1011.63 1012.00 1012.12 1012.36 1012.50 1012.52 1012.55 1012.67 1012.83 1013.12 1013.21 1013.38 1013.36 1013.47 1013.63 1013.58 1013.67 1013.76 1013.75 1013.84 1013.73 1013.74 1013.70 1013.67 1013.53 1013.51 1013.37 1013.51 1013.46 1013.26 1013.12 1012.95 1012.68 1012.35 1012.34 1012.10 1011.83 1011.56 1011.22
1010.15 1010.73 1011.08 1011.27 1011.55 1011.94 1012.21 1012.41 1012.65 1012.77 1012.81 1012.82 1012.90 1013.17 1013.35 1013.36 1013.42 1013.59 1013.69 1013.77 1013.78 1013.89 1014.05 1014.06 1013.95 1014.08 1014.03 1013.88 1013.81 1013.78 1013.76 1013.94 1013.93 1013.77 1013.63 1013.43 1013.12 1012.79 1012.73 1012.52 1012.26 1012.04 1011.77
1010.44 1010.68 1011.10 1011.33 1011.48 1011.78 1012.20 1012.43 1012.61 1012.80 1012.96 1012.96 1013.04 1013.24 1013.36 1013.40 1013.48 1013.72 1013.87 1013.87 1014.00 1014.01 1014.19 1014.24 1014.23 1014.31 1014.41 1014.05 1014.08 1014.11 1014.21 1014.19 1014.29 1014.26 1014.16 1013.97 1013.72 1013.27 1013.16 1013.07 1012.85 1012.64 1012.35
1010.56 1010.73 1010.98 1011.33 1011.54 1011.77 1011.98 1012.22 1012.48 1012.67 1012.90 1013.04 1013.17 1013.32 1013.42 1013.45 1013.46 1013.78 1013.85 1014.03 1014.17 1014.32 1014.42 1014.36 1014.43 1014.62 1014.72 1014.43 1014.45 1014.43 1014.56 1014.56 1014.55 1014.67 1014.57 1014.45 1014.13 1013.65 1013.62 1013.61 1013.34 1013.16 1012.91
1010.38 1010.65 1010.80 1011.08 1011.54 1011.84 1012.09 1012.26 1012.33 1012.50 1012.80 1012.97 1013.14 1013.37 1013.45 1013.54 1013.45 1013.66 1013.88 1014.19 1014.44 1014.62 1014.61 1014.67 1014.56 1014.73 1014.88 1014.86 1014.75 1014.78 1014.90 1015.00 1014.92 1014.98 1014.97 1014.88 1014.52 1014.11 1014.12 1014.15 1013.94 1013.65 1013.41
1010.12 1010.43 1010.84 1011.14 1011.25 1011.63 1012.02 1012.25 1012.43 1012.56 1012.64 1012.91 1013.17 1013.35 1013.59 1013.49 1013.63 1013.83 1014.02 1014.08 1014.50 1014.74 1014.81 1014.95 1014.95 1014.86 1015.06 1015.18 1015.02 1015.07 1015.13 1015.09 1015.23 1015.34 1015.36 1015.25 1014.91 1014.65 1014.66 1014.64 1014.53 1014.33 1013.98
1010.01 1010.36 1010.69 1011.06 1011.34 1011.60 1011.85 1012.28 1012.43 1012.61 1012.84 1012.95 1013.10 1013.44 1013.52 1013.59 1013.68 1013.97 1014.07 1014.28 1014.59 1014.82 1015.02 1015.12 1015.15 1015.04 1015.31 1015.44 1015.25 1015.32 1015.46 1015.47 1015.39 1015.57 1015.68 1015.72 1015.39 1015.22 1015.22 1015.12 1015.01 1014.82 1014.59
1010.24 1010.59 1010.87 1011.22 1011.32 1011.57 1011.85 1012.20 1012.54 1012.60 1012.85 1013.10 1013.22 1013.36 1013.62 1013.62 1013.78 1014.02 1014.13 1014.39 1014.65 1014.82 1015.10 1015.16 1015.27 1015.31 1015.54 1015.66 1015.51 1015.58 1015.72 1015.84 1015.82 1015.85 1015.99 1015.98 1015.75 1015.78 1015.74 1015.60 1015.43 1015.29 1015.14
1010.64 1010.62 1010.84 1011.13 1011.23 1011.55 1011.92 1012.17 1012.41 1012.66 1012.74 1013.10 1013.30 1013.28 1013.60 1013.69 1013.82 1014.11 1014.21 1014.48 1014.70 1014.77 1015.17 1015.21 1015.31 1015.38 1015.66 1015.80 1015.75 1015.81 1015.94 1016.11 1016.18 1016.24 1016.16 1016.06 1015.96 1016.18 1016.30 1016.13 1015.90 1015.77 1015.68
1010.63 1010.75 1010.86 1011.14 1011.35 1011.67 1011.87 1012.18 1012.46 1012.73 1012.88 1012.96 1013.30 1013.40 1013.58 1013.84 1013.90 1014.18 1014.27 1014.44 1014.72 1014.84 1015.09 1015.30 1015.37 1015.47 1015.65 1016.09 1016.07 1016.00 1016.18 1016.38 1016.47 1016.42 1016.32 1016.31 1016.30 1016.47 1016.66 1016.69 1016.43 1016.26 1016.25
1010.34 1010.65 1010.74 1010.90 1011.03 1011.40 1011.89 1012.23 1012.41 1012.62 1012.86 1013.10 1013.12 1013.54 1013.61 1013.90 1014.08 1014.39 1014.42 1014.51 1014.74 1015.02 1015.16 1015.32 1015.48 1015.64 1015.82 1016.34 1016.24 1016.23 1016.34 1016.55 1016.70 1016.70 1016.58 1016.57 1016.68 1016.85 1017.01 1017.15 1017.10 1016.97 1016.84
1009.61 1009.67 1010.12 1010.54 1010.83 1011.24 1011.48 1011.90 1012.11 1012.50 1012.70 1012.94 1012.99 1013.28 1013.61 1014.04 1014.06 1014.29 1014.43 1014.67 1014.76 1015.10 1015.35 1015.55 1015.78 1015.87 1015.96 1016.28 1016.25 1016.32 1016.52 1016.74 1016.98 1016.99 1016.85 1016.92 1017.05 1017.17 1017.42 1017.48 1017.54 1017.50 1017.44
1008.83 1009.05 1009.42 1010.16 1010.51 1010.87 1011.30 1011.72 1011.95 1012.21 1012.46 1012.64 1012.93 1013.25 1013.53 1013.92 1014.13 1014.16 1014.34 1014.65 1014.84 1015.14 1015.46 1015.61 1015.84 1016.06 1016.22 1016.20 1015.95 1015.98 1016.65 1016.95 1017.24 1017.28 1017.22 1017.21 1017.30 1017.53 1017.74 1017.88 1017.90 1018.00 1018.02
1008.15 1008.51 1008.91 1009.46 1010.18 1010.62 1010.95 1011.41 1011.82 1011.91 1012.15 1012.41 1012.74 1013.01 1013.24 1013.55 1013.87 1014.08 1014.34 1014.42 1014.82 1015.01 1015.42 1015.59 1015.76 1016.14 1016.43 1016.26 1016.04 1016.11 1016.68 1017.16 1017.58 1017.47 1017.45 1017.46 1017.60 1017.68 1017.94 1018.29 1018.33 1018.33 1018.45
1007.68 1007.86 1008.36 1008.90 1009.38 1010.12 1010.72 1011.07 1011.45 1011.68 1012.10 1012.37 1012.58 1012.76 1013.11 1013.38 1013.70 1013.87 1014.14 1014.58 1014.71 1015.04 1015.28 1015.61 1015.91 1016.22 1016.49 1016.41 1016.47 1016.34 1016.68 1017.22 1017.82 1017.65 1017.59 1017.70 1017.83 1017.95 1018.09 1018.31 1018.57 1018.71 1018.87
1006.63 1007.27 1007.76 1008.40 1009.02 1009.58 1010.31 1010.78 1011.23 1011.50 1011.87 1012.16 1012.44 1012.73 1012.87 1013.24 1013.51 1013.85 1014.32 1014.59 1014.67 1015.02 1015.22 1015.69 1016.05 1016.55 1016.82 1016.89 1016.98 1016.89 1017.00 1017.41 1017.65 1017.86 1017.63 1017.82 1018.10 1018.26 1018.43 1018.58 1018.76 1018.92 1019.11
1006.00 1006.44 1007.24 1007.90 1008.81 1009.23 1009.87 1010.46 1011.03 1011.30 1011.96 1012.16 1012.36 1012.62 1012.84 1013.18 1013.48 1013.84 1014.29 1014.55 1014.81 1015.09 1015.36 1015.73 1016.24 1016.54 1017.12 1017.37 1017.44 1017.45 1017.65 1017.75 1017.57 1018.02 1018.02 1018.23 1018.28 1018.44 1018.57 1018.80 1019.03 1019.18 1019.28
1005.47 1005.83 1006.32 1007.26 1008.11 1008.92 1009.85 1010.50 1011.12 1011.68 1012.21 1012.42 1012.70 1012.80 1012.91 1013.21 1013.61 1014.01 1014.24 1014.52 1014.83 1015.26 1015.62 1015.85 1016.31 1016.88 1017.30 1017.60 1017.79 1018.11 1018.31 1018.21 1018.18 1018.19 1018.30 1018.45 1018.53 1018.74 1018.92 1019.06 1019.15 1019.39 1019.54
1005.56 1005.85 1006.17 1007.05 1007.92 1008.77 1009.78 1010.55 1011.17 1011.44 1011.99 1012.40 1012.82 1012.97 1013.08 1013.37 1013.68 1014.00 1014.26 1014.64 1014.91 1015.27 1015.64 1016.07 1016.65 1017.04 1017.70 1017.83 1017.85 1018.60 1018.73 1018.74 1018.64 1018.64 1018.56 1018.73 1018.82 1018.96 1019.15 1019.35 1019.29 1019.45 1019.80
1004.75 1005.42 1005.77 1006.66 1007.30 1007.95 1008.93 1009.79 1010.26 1011.12 1011.81 1012.16 1012.64 1012.81 1012.94 1013.12 1013.50 1013.95 1014.27 1014.66 1015.00 1015.31 1015.72 1016.13 1016.39 1017.17 1017.67 1017.79 1018.05 1018.54 1019.07 1019.29 1019.19 1019.19 1018.79 1019.14 1019.20 1019.19 1019.28 1019.56 1019.66 1019.73 1019.96
1004.62 1005.07 1005.35 1006.04 1006.74 1007.53 1008.57 1009.61 1010.37 1011.12 1011.94 1012.50 1012.88 1013.06 1013.11 1013.19 1013.45 1013.71 1013.98 1014.43 1014.91 1015.21 1015.68 1016.03 1016.33 1016.68 1017.34 1017.83 1017.86 1018.05 1018.93 1019.06 1019.42 1019.44 1019.05 1019.24 1019.05 1019.35 1019.67 1019.81 1019.94 1020.15 1020.32
1004.21 1004.67 1004.77 1005.68 1006.55 1007.53 1008.31 1009.13 1009.89 1010.48 1011.64 1012.13 1012.46 1012.82 1013.11 1013.26 1013.50 1013.71 1013.80 1014.31 1014.83 1015.20 1015.55 1015.81 1016.28 1016.65 1016.93 1017.41 1018.03 1018.11 1018.08 1018.44 1019.17 1019.70 1019.62 1019.42 1019.55 1019.74 1019.89 1020.08 1020.35 1020.52 1020.62
1003.83 1004.51 1005.10 1005.89 1006.76 1007.54 1008.22 1008.99 1009.79 1010.54 1011.16 1011.80 1012.40 1012.90 1013.29 1013.47 1013.46 1013.58 1013.92 1014.18 1014.67 1015.03 1015.35 1015.52 1016.02 1016.45 1016.75 1017.02 1017.40 1018.04 1018.30 1018.55 1018.79 1019.13 1019.43 1019.48 1019.65 1019.76 1019.91 1019.99 1020.34 1020.56 1020.67
1004.71 1005.22 1005.41 1006.18 1007.34 1007.93 1008.49 1009.31 1009.88 1010.54 1011.21 1011.95 1012.60 1013.16 1013.33 1013.40 1013.50 1013.64 1013.85 1014.25 1014.48 1014.87 1015.10 1015.28 1015.70 1016.18 1016.56 1016.92 1017.25 1017.76 1017.94 1018.38 1018.65 1018.71 1019.09 1019.40 1019.54 1019.78 1019.83 1019.98 1020.10 1020.40 1020.54
Wind_Speed
7 10 17 17 15 13 12 12 11 12 12 12 11 11 11 11 10 10 11 12 12 12 12 13 13 13 15 14 14 12 10 14 17 18 17 16 18 20 21 20 18 16 24
11 11 17 16 15 14 13 12 12 11 12 10 11 10 9 10 10 9 9 11 12 12 12 12 13 12 13 14 14 13 12 13 15 16 14 12 17 20 21 21 22 19 24
14 12 13 16 16 15 13 12 11 11 10 11 11 8 9 8 9 9 8 9 11 11 12 11 12 11 13 13 12 12 15 16 15 15 14 5 9 20 21 20 21 23 24
15 12 11 17 15 15 13 12 11 10 9 9 9 8 8 7 9 8 8 9 12 11 11 11 11 12 13 13 14 13 16 17 16 15 7 7 9 19 20 22 22 23 24
13 12 12 16 16 15 15 14 12 11 10 9 9 7 8 7 8 8 7 10 10 11 11 10 11 12 11 14 13 13 16 17 16 11 7 6 5 15 20 21 20 21 23
12 11 15 17 16 16 16 15 14 13 11 10 8 8 8 7 10 8 7 9 10 10 10 10 10 10 10 12 13 14 15 16 14 7 6 7 5 18 19 19 21 21 21
12 11 14 19 17 16 15 15 14 14 12 11 10 7 6 8 9 10 9 9 9 10 9 9 9 9 9 9 11 13 14 14 7 6 6 6 7 18 18 18 20 20 20
15 13 13 17 18 17 15 14 13 13 13 11 8 8 5 8 9 10 10 11 9 9 9 8 6 7 8 7 10 12 12 13 8 6 6 5 14 19 18 18 18 19 20
12 12 11 12 13 15 15 13 13 12 10 11 10 7 7 3 8 10 10 10 9 9 9 8 6 5 6 6 10 13 11 9 7 4 6 4 15 17 17 15 17 18 19
10 9 10 8 8 9 7 13 11 11 10 10 9 7 6 6 8 10 10 9 9 9 8 8 5 3 4 5 9 11 12 9 5 5 4 4 15 16 16 15 16 17 19
6 8 9 9 7 6 5 7 10 10 10 10 8 8 6 4 5 7 8 9 10 10 9 8 7 4 2 4 7 9 10 3 4 3 3 11 14 14 15 15 14 17 18
8 7 8 8 8 6 5 5 5 5 4 5 4 4 3 4 4 5 6 10 11 10 10 9 7 4 2 3 2 6 3 4 3 3 3 12 14 16 15 14 14 16 17
9 7 9 10 9 9 5 4 3 2 3 3 5 5 4 3 2 2 2 2 3 7 3 4 4 1 1 3 1 2 5 4 2 1 5 13 14 16 14 14 15 16 17
13 15 12 11 10 8 5 5 6 4 4 3 5 6 4 2 2 3 3 3 4 3 4 3 2 2 2 3 4 4 4 4 2 2 5 14 16 16 15 15 15 16 17
15 14 14 10 10 9 8 4 5 5 5 4 4 4 3 4 4 3 4 3 3 3 3 3 3 2 2 3 2 8 6 5 4 2 2 13 14 16 15 15 16 15 17
14 14 12 14 10 10 7 7 5 4 4 4 4 5 6 4 4 4 4 4 4 4 3 3 3 3 2 0 1 5 6 5 3 4 3 5 13 16 16 14 15 16 16
11 13 14 13 12 10 8 7 5 4 4 4 4 5 5 5 5 5 4 4 4 4 5 4 3 3 4 2 4 5 7 6 3 5 4 4 6 12 15 16 14 15 16
14 15 15 12 13 12 9 6 5 5 4 4 4 4 6 5 6 5 4 4 4 4 4 3 4 4 4 4 2 3 4 3 5 4 5 5 4 4 10 14 16 15 16
14 16 16 13 14 13 9 7 6 8 4 4 4 4 5 6 6 5 4 4 4 4 3 3 2 3 3 3 4 4 3 3 4 3 5 5 5 4 4 12 14 14 16
12 16 18 14 13 11 7 6 4 5 4 4 4 3 5 4 6 5 4 5 4 4 3 3 4 3 3 4 6 6 4 3 2 2 4 3 4 5 4 5 6 7 15
8 14 17 15 12 11 8 6 4 5 3 3 4 6 6 5 6 5 4 5 4 4 4 5 4 7 3 2 4 3 4 4 4 3 2 2 4 4 5 4 3 4 6
15 16 17 15 16 13 10 4 4 4 3 3 3 3 4 4 4 5 6 5 5 4 5 5 5 3 2 2 3 2 2 2 2 2 1 1 3 2 4 3 3 3 4
13 17 18 18 18 13 11 7 5 5 4 3 2 2 3 4 4 6 6 5 5 4 4 4 4 5 4 2 2 4 2 3 1 1 2 3 3 1 3 3 3 3 2
14 15 19 17 17 11 13 8 12 5 5 3 4 3 3 3 5 6 6 6 5 4 5 4 4 3 4 5 2 1 2 3 3 2 1 2 2 3 3 1 2 1 2
8 13 13 12 11 10 8 8 7 6 4 4 3 4 3 4 5 6 6 6 6 5 5 6 6 5 2 4 3 3 1 2 2 2 3 3 1 2 2 3 1 2 3
7 7 12 14 9 10 9 8 9 9 7 5 4 4 3 2 3 4 4 5 4 4 5 4 5 6 5 3 3 3 3 3 3 3 2 2 2 2 2 2 3 3 3
Wind_Direction
172 167 160 157 151 150 151 146 140 130 126 117 118 115 113 114 110 108 112 109 100 92 84 79 76 76 70 56 47 47 73 72 67 62 56 54 59 62 59 51 54 51 47
142 159 159 156 151 151 143 133 145 127 127 126 114 114 112 118 114 109 117 112 107 93 88 83 82 73 71 54 43 53 70 73 71 68 57 45 55 64 60 54 50 48 49
144 154 156 155 153 153 146 142 131 127 126 131 125 119 117 126 122 112 115 113 103 96 91 86 82 78 71 57 45 70 80 73 69 63 48 29 60 62 64 58 55 48 48
146 151 157 158 155 152 149 143 143 140 134 119 113 128 131 142 126 123 129 121 114 105 93 88 83 77 70 58 65 70 82 76 66 57 38 30 50 66 63 60 56 51 47
146 149 162 161 158 156 155 153 146 141 139 134 132 129 143 147 126 130 139 132 121 110 104 96 85 80 73 66 71 78 82 80 66 48 36 42 34 67 66 63 56 49 49
152 156 166 165 165 163 160 158 160 157 153 145 146 151 156 157 144 137 145 136 126 117 112 103 96 86 75 72 73 84 84 81 73 52 41 31 44 68 63 64 61 54 51
159 164 167 168 171 170 166 165 161 160 157 153 155 164 166 162 148 148 145 139 133 129 118 109 101 97 80 68 70 94 90 84 76 62 45 32 68 74 65 63 63 60 57
160 166 171 175 174 173 172 169 164 164 161 160 156 167 183 169 156 156 149 143 146 138 127 117 116 97 85 74 67 110 105 100 80 70 53 38 68 68 64 63 66 62 58
164 162 170 175 176 182 170 175 170 167 166 157 163 182 184 173 161 152 149 151 152 155 146 134 121 102 90 76 79 97 100 94 92 80 69 39 75 71 67 61 61 65 66
160 162 161 168 167 170 171 175 174 167 166 167 165 173 147 162 147 147 152 155 161 158 160 141 134 121 98 89 91 94 95 81 72 88 81 77 78 72 74 65 69 69 69
159 160 160 164 159 157 158 173 174 174 171 174 171 164 161 152 152 157 158 167 163 164 172 162 162 169 134 93 91 92 102 87 77 77 97 92 84 83 77 74 71 74 73
169 172 172 164 162 163 176 172 168 180 177 169 178 177 167 171 170 174 175 171 170 170 173 174 173 195 123 84 65 97 102 107 93 108 108 105 102 94 86 84 75 75 77
178 175 181 177 176 167 170 172 159 180 168 188 176 188 170 180 201 210 168 184 157 166 163 168 167 206 269 89 12 126 126 125 117 94 98 105 107 96 88 84 83 78 74
176 189 184 183 176 176 159 175 174 178 184 182 198 184 168 194 180 217 163 162 154 145 162 170 165 215 321 38 236 142 133 123 131 123 120 122 112 107 101 94 87 81 78
182 185 181 175 174 170 159 166 181 187 193 192 192 182 172 178 160 154 136 162 152 152 176 201 183 182 46 329 245 154 144 132 143 115 107 122 120 113 107 102 95 89 83
194 186 174 175 173 168 162 165 186 181 188 178 187 187 179 162 154 152 157 150 160 165 176 186 192 132 126 61 152 136 136 112 129 129 118 119 128 123 114 107 102 96 91
200 188 172 174 161 161 174 172 164 176 169 182 187 172 168 165 164 149 143 151 163 172 167 171 132 104 109 78 88 130 129 134 149 129 121 109 125 124 126 123 110 102 95
190 182 178 173 171 167 169 162 161 158 163 167 168 179 172 169 158 142 147 166 164 164 154 154 134 106 102 78 77 88 110 114 135 151 135 129 119 118 129 129 121 113 106
186 182 176 164 172 169 157 148 148 135 137 139 123 138 155 156 144 141 157 151 161 152 141 132 107 127 126 99 73 55 38 95 126 117 114 129 135 134 126 130 128 120 114
183 182 176 168 162 156 140 127 116 129 143 140 146 160 153 142 140 144 135 138 144 127 116 108 119 95 102 119 85 56 34 53 48 97 140 128 117 111 115 128 126 131 127
183 176 176 164 153 144 145 149 140 149 137 118 143 154 149 153 157 155 137 135 141 134 142 127 100 115 93 141 98 69 45 15 41 56 53 77 109 121 129 148 147 128 141
172 187 170 166 161 161 159 152 127 135 132 126 139 155 163 159 145 160 160 158 157 131 135 148 142 116 95 228 110 104 133 14 35 343 105 88 71 109 101 103 50 124 148
179 181 172 171 167 161 149 122 92 89 70 92 141 175 201 177 170 159 173 148 151 135 156 165 137 141 139 203 235 131 147 186 155 282 118 103 113 319 69 56 53 355 266
188 190 176 167 164 155 153 140 155 147 141 174 163 168 173 182 185 160 147 147 152 154 170 155 151 151 134 167 98 52 99 136 156 200 226 142 170 161 142 95 50 245 248
154 174 159 143 139 137 135 140 138 125 121 131 122 144 170 199 188 168 169 172 165 169 186 170 158 156 162 165 153 148 135 91 78 146 181 163 172 176 175 162 183 208 192
88 117 134 122 116 121 121 125 132 139 143 133 143 151 149 148 136 125 136 166 174 181 177 176 157 158 159 164 156 160 153 162 184 158 118 115 146 182 166 136 156 198 181